Regional Weather Roundup
Issued by NWS

Home | Current Version | Previous Version | Text Only | Print | Product List | Glossary Off
Versions: 1 2 3 4 5 6 7 8 9 10 11 12 13 14 15 16 17 18 19 20 21 22 23 24 25 26 27 28 29 30 31 32 33 34 35 36 37 38 39 40 41 42 43 44 45 46 47 48 49 50

000
ASUS43 KFSD 111410
RWRSD

WEATHER ROUNDUP FOR SOUTH DAKOTA
NATIONAL WEATHER SERVICE SIOUX FALLS SD
800 AM CST THU FEB 11 2016

NOTE: "FAIR" INDICATES FEW OR NO CLOUDS BELOW 12,000 FEET WITH NO
SIGNIFICANT WEATHER AND/OR OBSTRUCTIONS TO VISIBILITY.


SDZ001>005-009-010-012>017-111500-
NORTHWEST AND NORTH CENTRAL SOUTH DAKOTA

CITY           SKY/WX    TMP DP  RH WIND       PRES   REMARKS
BUFFALO          N/A     31  28  89 S13       29.90F WCI  21
FAITH            N/A     28  24  85 S12       30.01F WCI  18
MOBRIDGE       LGT SNOW  21  18  88 SE9       30.09S FOG     WCI  11
$$

SDZ012>016-024>037-041>051-057-063-072>074-111500-
SOUTHWEST AND SOUTH CENTRAL SOUTH DAKOTA

CITY           SKY/WX    TMP DP  RH WIND       PRES   REMARKS
RAPID CTY ARPT FOG       27  27 100 S7        29.98R VSB 1/4 WCI  19
PIERRE         CLOUDY    23  20  88 SE10      30.13R WCI  12
CUSTER         CLOUDY    42  20  41 NW14G25   30.00R
ELLSWORTH AFB  CLOUDY    27  27 100 S3        29.98  FOG
PHILIP         CLOUDY    31  27  85 SE8       30.06F WCI  23
PINE RIDGE     CLOUDY    30  26  85 NW5       30.02S WCI  25
SPEARFISH      CLOUDY    46  27  46 W17G23    29.99R
WINNER         CLOUDY    28  23  81 SE8       30.13S WCI  20
$$

SDZ004>011-016>023-039-040-111500-
NORTHEAST SOUTH DAKOTA

CITY           SKY/WX    TMP DP  RH WIND       PRES   REMARKS
ABERDEEN       CLOUDY    16  10  77 S7        30.20F WCI   6
WATERTOWN      CLOUDY    12   6  77 S12       30.18F WCI  -2
BROOKINGS      CLOUDY    12   7  80 S8        30.21F WCI   0
SISSETON         N/A      8   3  80 S6        30.23F WCI  -2
$$

SDZ017-020-022-023-036>040-048>070-111500-
SOUTHEAST SOUTH DAKOTA

CITY           SKY/WX    TMP DP  RH WIND       PRES   REMARKS
SIOUX FALLS    CLOUDY    13   5  70 S8        30.25R WCI   2
HURON          CLOUDY    18  13  80 S7        30.20F WCI   9
CHAMBERLAIN    CLOUDY    21  20  97 SE10      30.15F WCI  10
MITCHELL       CLOUDY    18  13  80 SE10      30.22F WCI   6
YANKTON        CLOUDY    16  10  79 E6        30.25F WCI   7
$$

ABBREVIATIONS USED IN REMARKS
   TC - TEMPERATURE IN CELSIUS
  WCI - WIND CHILL INDEX
   HX - HEAT INDEX
  VSB - VISIBILITY




USA.gov is the U.S. government's official web portal to all federal, state and local government web resources and services.